Starlink 1221

operational
NORAD ID: 45227 Int'l Des: 2020-012 Owner: SPXS Country: US Constellation: starlink
LEOCIRCULAR

关于 Starlink 1221

正在加载描述...

实时位置

正在加载3D地球...

即将过境

高度历史

Altitude vs Time

uPlot chart will show altitude changes over time

两行轨道根数

1 45227U 20012BB 25352.54500154 .00011884 00000-0 31544-3 0 9998
2 45227 53.0686 293.1781 0005747 103.5162 256.6482 15.38735765324206
Epoch: Dec 18, 2025 • Age: 17 hours

当前状态

高度 470.1 km
速度 7.63 km/s
星下点 -49.53°S, 3.35°W
发射日期 Feb 17, 2020
运行时间 5.8 years
类型 internet

技术详情

分类 Payload
质量 260.00 kg
干质量 248.00 kg
总质量 260.00 kg
长度 0.20 m
直径 2.80 m
跨度 9.00 m
形状 Box + pan
制造商 SPXS
平台类型 Starlink
阶段状态 In Orbit
所有者/国家 SPXS/US

大型星座

Loading constellations...